[[{"header":{"parameterUnit":"m.s-1","parameterCategory":1,"la1":30.2991,"la2":30.254,"lo1":-89.0895,"lo2":-89.0444,"dy":0.0017,"dx":0.0017,"nx":28,"ny":28,"refTime":"2025-04-26T09:00:00:Z","depth":0,"parameterNumber":2,"parameterNumberName":"U-component_of_WINDS"},"data":[0,0,0,0,0,0,0,0,0,0,0,0,0,0,0,0,0,0,0,0,0,0,0,0,0,0,0,0,0,0,0,0,0,0,0,0,0,0,0,0,0,0,0,0,0,0,0,0,0,0,0,0,0,0,0,0,0,0,-0.5349,-0.5348,0,-0.5273,-0.5273,-0.5272,-0.523,-0.523,-0.523,-0.523,-0.5153,-0.5151,-0.5149,0,0,0,0,0,0,0,0,0,0,0,0,0,-0.5458,-0.5456,-0.5349,-0.5348,-0.5347,-0.5274,-0.5273,-0.5271,-0.523,-0.523,-0.523,-0.523,-0.5154,-0.5151,-0.5149,0,0,0,0,0,0,0,0,0,0,0,0,0,-0.5399,-0.5455,-0.5349,-0.5317,-0.5314,-0.5274,-0.5272,-0.5271,-0.523,-0.523,-0.523,-0.523,-0.5154,-0.5152,-0.5149,-0.5134,0,0,-0.514,-0.5139,0,0,0,0,0,0,0,0,-0.5402,-0.5395,-0.5323,-0.532,-0.5316,-0.5261,-0.5283,-0.5225,-0.523,-0.5262,-0.523,-0.523,-0.5189,-0.5183,-0.517,-0.5131,-0.5127,-0.514,-0.5138,-0.5136,-0.5136,0,0,0,0,0,0,0,-0.5407,-0.5398,-0.5319,-0.5322,-0.5317,-0.5307,-0.5299,-0.5272,-0.5227,-0.5259,-0.5256,-0.5248,-0.5187,-0.5172,-0.5167,-0.5126,-0.514,-0.5137,-0.5135,-0.5134,-0.5071,-0.5071,0,0,0,0,0,0,-0.5416,-0.5402,-0.5321,-0.5317,-0.5359,-0.5305,-0.5296,-0.5279,-0.5228,-0.522,-0.5248,-0.5246,-0.5177,-0.5171,-0.5165,-0.5144,-0.5137,-0.5134,-0.5132,-0.5071,-0.5071,-0.5071,0,0,0,0,0,0,-0.5418,-0.5409,-0.5324,-0.5358,-0.5347,-0.5304,-0.5285,-0.5277,-0.5263,-0.5219,-0.5211,-0.5241,-0.5177,-0.5169,-0.5142,-0.514,-0.5132,-0.513,-0.5071,-0.5071,-0.5071,-0.5102,0,0,0,0,0,0,-0.5421,-0.541,-0.5404,-0.5359,-0.5345,-0.5303,-0.5285,-0.5276,-0.5258,-0.5255,-0.521,-0.5203,-0.5176,-0.5146,-0.5139,-0.5136,-0.5128,-0.5071,-0.5071,-0.5071,-0.5101,-0.5104,-0.5105,0,0,0,0,0,-0.5425,-0.5416,-0.5404,-0.5394,-0.5337,-0.5303,-0.5295,-0.5265,-0.5258,-0.5251,-0.5223,-0.5204,-0.5142,-0.5144,-0.5135,-0.5132,-0.5071,-0.5071,-0.5071,-0.51,-0.5103,-0.5105,0,0,0,0,0,0,-0.5462,-0.5409,-0.5395,-0.5371,-0.5342,-0.5296,-0.5287,-0.5269,-0.5241,-0.5239,-0.5202,-0.5193,-0.5169,-0.5148,-0.5151,-0.5115,-0.5104,-0.5103,-0.513,-0.5132,-0.5134,-0.5139,-0.5125,0,0,0,0,0,-0.5468,-0.5445,-0.54,-0.5382,-0.5368,-0.533,-0.5315,-0.5293,-0.5262,-0.5249,-0.5219,-0.519,-0.5163,-0.5146,-0.512,-0.5098,-0.5088,-0.5092,-0.5094,-0.5096,-0.5094,-0.5081,-0.5082,-0.5072,-0.5072,-0.5072,0,0,-0.5478,-0.5446,-0.5434,-0.5389,-0.5364,-0.5341,-0.532,-0.5297,-0.5279,-0.5246,-0.5218,-0.5196,-0.516,-0.5136,-0.5123,-0.5117,-0.5095,-0.5096,-0.5098,-0.5095,-0.5081,-0.5082,-0.5083,-0.5072,-0.5072,-0.5072,0,0,-0.5485,-0.5459,-0.5442,-0.5417,-0.5379,-0.5354,-0.535,-0.5307,-0.5291,-0.5263,-0.5237,-0.5216,-0.5171,-0.5147,-0.5128,-0.5127,-0.5108,-0.5119,-0.513,-0.5118,-0.5118,-0.5119,-0.5118,-0.5118,-0.5119,-0.5119,-0.5119,0,-0.5503,-0.5467,-0.5435,-0.5413,-0.5394,-0.5362,-0.5344,-0.5322,-0.5278,-0.5265,-0.5259,-0.5202,-0.5176,-0.5145,-0.5145,-0.5131,-0.5125,-0.5124,-0.5121,-0.5121,-0.5121,-0.5119,-0.5119,-0.512,-0.512,-0.512,-0.512,0,-0.5491,-0.5467,-0.5457,-0.5415,-0.5394,-0.5375,-0.5339,-0.5323,-0.5304,-0.5279,-0.5251,-0.5219,-0.5185,-0.5176,-0.5158,-0.5143,-0.514,-0.5128,-0.5116,-0.5124,-0.5122,-0.5121,-0.5122,-0.5122,-0.5121,-0.5121,0,0,-0.5518,-0.5459,-0.5456,-0.5436,-0.5393,-0.5373,-0.5352,-0.5319,-0.5305,-0.5276,-0.5257,-0.522,-0.5208,-0.5188,-0.5166,-0.5155,-0.5155,-0.5144,-0.5142,-0.5146,-0.5136,-0.5145,-0.5145,-0.5143,-0.5143,-0.5142,-0.5139,0,-0.5519,-0.5479,-0.545,-0.5421,-0.5398,-0.5368,-0.535,-0.5321,-0.5298,-0.5275,-0.5249,-0.5223,-0.521,-0.5197,-0.5185,-0.5158,-0.5152,-0.5158,-0.5124,-0.5124,-0.5134,-0.5144,-0.5153,-0.5152,-0.5138,-0.5138,-0.5138,0,-0.5514,-0.5485,-0.5455,-0.5413,-0.5402,-0.5386,-0.5353,-0.5332,-0.5299,-0.5283,-0.526,-0.5237,-0.5214,-0.5205,-0.5172,-0.5176,-0.5161,-0.5145,-0.5144,-0.514,-0.5131,-0.5139,-0.5151,-0.515,-0.5136,-0.5137,-0.5137,0,-0.5536,-0.549,-0.5466,-0.545,-0.5401,-0.5391,-0.537,-0.5337,-0.5319,-0.529,-0.5278,-0.5247,-0.523,-0.5207,-0.5176,-0.5173,-0.5146,-0.5135,-0.5132,-0.5132,-0.5126,-0.5127,-0.5135,-0.5118,-0.5118,-0.5118,-0.5118,0,-0.5539,-0.5521,-0.5475,-0.546,-0.5439,-0.5406,-0.5386,-0.5363,-0.5333,-0.5313,-0.5286,-0.5268,-0.5229,-0.5206,-0.5183,-0.5158,-0.5151,-0.5137,-0.5131,-0.5139,-0.5141,-0.5128,-0.5127,-0.5118,-0.5118,-0.5118,-0.5118,0,-0.556,-0.5529,-0.55,-0.5456,-0.5445,-0.5431,-0.5394,-0.5378,-0.5354,-0.5329,-0.5321,-0.5282,-0.5254,-0.5222,-0.5183,-0.5167,-0.5144,-0.5135,-0.5155,-0.5151,-0.5149,-0.515,-0.5149,-0.5147,-0.5132,-0.5132,-0.5133,0,-0.5564,-0.5549,-0.5504,-0.5489,-0.5469,-0.5444,-0.5426,-0.5392,-0.5374,-0.5335,-0.5324,-0.5294,-0.5267,-0.5223,-0.5192,-0.5162,-0.5152,-0.5154,-0.5147,-0.5156,-0.5151,-0.5152,-0.515,-0.5155,-0.5156,-0.5156,-0.5156,0,-0.5573,-0.5559,-0.5533,-0.5501,-0.548,-0.5453,-0.5426,-0.5415,-0.5376,-0.5357,-0.5328,-0.5307,-0.5267,-0.5237,-0.5203,-0.5182,-0.5162,-0.5158,-0.5156,-0.5164,-0.5175,-0.5168,-0.5159,-0.5158,-0.5158,-0.5158,-0.5158,-0.5158,-0.5585,-0.5571,-0.5537,-0.5509,-0.5485,-0.546,-0.5443,-0.5416,-0.5391,-0.5356,-0.5338,-0.5309,-0.5276,-0.5228,-0.5208,-0.5184,-0.5178,-0.5174,-0.5173,-0.5173,-0.5174,-0.518,-0.5178,-0.5178,-0.5178,-0.5178,-0.5177,0,-0.5593,-0.5569,-0.5544,-0.5507,-0.5485,-0.5469,-0.5438,-0.542,-0.5395,-0.5366,-0.534,-0.5307,-0.5277,-0.5244,-0.5212,-0.52,-0.519,-0.5193,-0.5193,-0.5188,-0.5182,-0.5187,-0.5201,-0.5201,-0.5201,-0.5201,-0.5201,-0.5201,-0.5594,-0.5568,-0.555,-0.5512,-0.5489,-0.546,-0.5444,-0.542,-0.5397,-0.536,-0.5336,-0.5314,-0.5283,-0.525,-0.5222,-0.5213,-0.5202,-0.5207,-0.5196,-0.5191,-0.5189,-0.5187,-0.5191,-0.5206,-0.5206,-0.5203,-0.5203,-0.5203]},{"header":{"parameterUnit":"m.s-1","parameterCategory":1,"la1":30.2991,"la2":30.254,"lo1":-89.0895,"lo2":-89.0444,"dy":0.0017,"dx":0.0017,"nx":28,"ny":28,"refTime":"2025-04-26T09:00:00:Z","depth":0,"parameterNumber":3,"parameterNumberName":"V-component_of_WINDS"},"data":[0,0,0,0,0,0,0,0,0,0,0,0,0,0,0,0,0,0,0,0,0,0,0,0,0,0,0,0,0,0,0,0,0,0,0,0,0,0,0,0,0,0,0,0,0,0,0,0,0,0,0,0,0,0,0,0,0,0,-0.7673,-0.7674,0,-0.7727,-0.7727,-0.7728,-0.7748,-0.7748,-0.7748,-0.7748,-0.7806,-0.7807,-0.7809,0,0,0,0,0,0,0,0,0,0,0,0,0,-0.7592,-0.7594,-0.7673,-0.7674,-0.7675,-0.7727,-0.7727,-0.7728,-0.7748,-0.7748,-0.7748,-0.7748,-0.7805,-0.7807,-0.7809,0,0,0,0,0,0,0,0,0,0,0,0,0,-0.7635,-0.7594,-0.7673,-0.7691,-0.7693,-0.7726,-0.7727,-0.7728,-0.7748,-0.7748,-0.7748,-0.7748,-0.7804,-0.7807,-0.7809,-0.783,0,0,-0.7817,-0.7818,0,0,0,0,0,0,0,0,-0.7633,-0.7638,-0.7688,-0.769,-0.7692,-0.773,-0.772,-0.7763,-0.7748,-0.7727,-0.7748,-0.7747,-0.7781,-0.7785,-0.7796,-0.7833,-0.7835,-0.7817,-0.7819,-0.782,-0.7821,0,0,0,0,0,0,0,-0.763,-0.7636,-0.7694,-0.7688,-0.7691,-0.7697,-0.7703,-0.7728,-0.7755,-0.7729,-0.7731,-0.7737,-0.7782,-0.7794,-0.7798,-0.7836,-0.7817,-0.7819,-0.7821,-0.7822,-0.7895,-0.7895,0,0,0,0,0,0,-0.7623,-0.7633,-0.7693,-0.7696,-0.7661,-0.7699,-0.7705,-0.7718,-0.7755,-0.776,-0.7737,-0.7737,-0.7789,-0.7795,-0.78,-0.7827,-0.782,-0.7822,-0.7824,-0.7894,-0.7895,-0.7895,0,0,0,0,0,0,-0.7621,-0.7628,-0.7691,-0.7665,-0.7673,-0.7701,-0.7715,-0.772,-0.7731,-0.7761,-0.7766,-0.7743,-0.7789,-0.7796,-0.7823,-0.783,-0.7823,-0.7826,-0.7894,-0.7894,-0.7895,-0.7882,0,0,0,0,0,0,-0.7619,-0.7627,-0.7635,-0.7665,-0.7675,-0.7711,-0.7716,-0.7721,-0.7735,-0.7736,-0.7768,-0.7773,-0.779,-0.7819,-0.7825,-0.7833,-0.7828,-0.7893,-0.7894,-0.7895,-0.7882,-0.7882,-0.7882,0,0,0,0,0,-0.7616,-0.7629,-0.7635,-0.7642,-0.7684,-0.7711,-0.7717,-0.7735,-0.7735,-0.7744,-0.7763,-0.7772,-0.7828,-0.7821,-0.7829,-0.7837,-0.7893,-0.7894,-0.7895,-0.7882,-0.7882,-0.7882,0,0,0,0,0,0,-0.7599,-0.7633,-0.764,-0.7663,-0.7684,-0.7715,-0.7725,-0.7735,-0.7757,-0.7757,-0.778,-0.7787,-0.7812,-0.7827,-0.7819,-0.786,-0.7861,-0.7864,-0.7849,-0.7849,-0.7849,-0.7845,-0.783,0,0,0,0,0,-0.7598,-0.7617,-0.7646,-0.7664,-0.7674,-0.7698,-0.7711,-0.7723,-0.7746,-0.7755,-0.7776,-0.7799,-0.7822,-0.7837,-0.7859,-0.7885,-0.7892,-0.7894,-0.7895,-0.7895,-0.7896,-0.7912,-0.7914,-0.7898,-0.7898,-0.7898,0,0,-0.7597,-0.7617,-0.7628,-0.7661,-0.7679,-0.7698,-0.7705,-0.7726,-0.7741,-0.7759,-0.7784,-0.7801,-0.7829,-0.7855,-0.7867,-0.7868,-0.7903,-0.7896,-0.7895,-0.7897,-0.7913,-0.7915,-0.7916,-0.7899,-0.7898,-0.7898,0,0,-0.7603,-0.762,-0.7638,-0.7655,-0.7682,-0.7698,-0.7702,-0.7732,-0.7743,-0.777,-0.7784,-0.7803,-0.7842,-0.7861,-0.7876,-0.7892,-0.7901,-0.7898,-0.7899,-0.7914,-0.7915,-0.7917,-0.7923,-0.7925,-0.79,-0.79,-0.79,0,-0.7598,-0.7627,-0.7645,-0.7665,-0.768,-0.7697,-0.7715,-0.7732,-0.7765,-0.7775,-0.7776,-0.7826,-0.7845,-0.7877,-0.788,-0.7892,-0.7898,-0.7895,-0.7914,-0.7915,-0.7916,-0.7923,-0.7925,-0.79,-0.79,-0.79,-0.79,0,-0.7619,-0.764,-0.7651,-0.7681,-0.7698,-0.7717,-0.7739,-0.7754,-0.7765,-0.7782,-0.7809,-0.7834,-0.7862,-0.787,-0.7882,-0.7904,-0.7904,-0.7909,-0.791,-0.7917,-0.7923,-0.7926,-0.7899,-0.7899,-0.7899,-0.7899,0,0,-0.7616,-0.7658,-0.7661,-0.7676,-0.7707,-0.7724,-0.7745,-0.7772,-0.7784,-0.7807,-0.7826,-0.7859,-0.7864,-0.7881,-0.7895,-0.7908,-0.792,-0.7912,-0.7913,-0.7913,-0.7947,-0.7943,-0.7945,-0.7927,-0.7927,-0.7928,-0.7945,0,-0.7627,-0.7663,-0.7681,-0.771,-0.773,-0.7747,-0.7765,-0.7787,-0.7804,-0.7824,-0.7843,-0.7866,-0.787,-0.7881,-0.7895,-0.7915,-0.7927,-0.7915,-0.7945,-0.7946,-0.7938,-0.7949,-0.7944,-0.7959,-0.7948,-0.7948,-0.7948,0,-0.7644,-0.7667,-0.7697,-0.7727,-0.7736,-0.7752,-0.7779,-0.7798,-0.7824,-0.7835,-0.7855,-0.7868,-0.7893,-0.7892,-0.7927,-0.7918,-0.7932,-0.7944,-0.7945,-0.7948,-0.7947,-0.7953,-0.7964,-0.7966,-0.7952,-0.7952,-0.7952,0,-0.7639,-0.7677,-0.77,-0.7713,-0.7748,-0.7759,-0.7775,-0.7801,-0.7816,-0.784,-0.7851,-0.7878,-0.7892,-0.7914,-0.7935,-0.7933,-0.7968,-0.7969,-0.7979,-0.7978,-0.7985,-0.7984,-0.7999,-0.7994,-0.7994,-0.7994,-0.7994,0,-0.765,-0.7668,-0.7699,-0.7713,-0.7735,-0.7756,-0.7777,-0.7795,-0.7818,-0.7837,-0.7854,-0.7872,-0.7899,-0.7921,-0.7938,-0.7964,-0.7971,-0.7981,-0.7985,-0.798,-0.7978,-0.7989,-0.7988,-0.7994,-0.7994,-0.7994,-0.7994,0,-0.7647,-0.7669,-0.7695,-0.7727,-0.7736,-0.775,-0.7778,-0.7794,-0.7811,-0.7836,-0.7843,-0.7871,-0.7898,-0.7921,-0.7957,-0.7968,-0.7995,-0.8001,-0.7986,-0.7988,-0.7997,-0.7996,-0.8019,-0.8023,-0.8015,-0.8015,-0.8015,0,-0.7652,-0.7667,-0.77,-0.7714,-0.7729,-0.7751,-0.7767,-0.7789,-0.7805,-0.7837,-0.7849,-0.7877,-0.79,-0.7942,-0.7967,-0.7994,-0.8001,-0.8007,-0.8005,-0.7999,-0.8001,-0.8,-0.8002,-0.8007,-0.8007,-0.8007,-0.8007,0,-0.7659,-0.7669,-0.7691,-0.7717,-0.7735,-0.7757,-0.7779,-0.779,-0.7817,-0.7835,-0.7862,-0.788,-0.7916,-0.7944,-0.7974,-0.7992,-0.8004,-0.8007,-0.8011,-0.8005,-0.7996,-0.8001,-0.7986,-0.8006,-0.8007,-0.8007,-0.8007,-0.8007,-0.7661,-0.7675,-0.7701,-0.7725,-0.7744,-0.7765,-0.7781,-0.7801,-0.7824,-0.7854,-0.7867,-0.7895,-0.7922,-0.7965,-0.7982,-0.8006,-0.8008,-0.8013,-0.8014,-0.8015,-0.8014,-0.7992,-0.8011,-0.8011,-0.8011,-0.8011,-0.8011,0,-0.7669,-0.7687,-0.7709,-0.7739,-0.7759,-0.7768,-0.7794,-0.7809,-0.7833,-0.7858,-0.788,-0.7912,-0.794,-0.7967,-0.7996,-0.8009,-0.8016,-0.8016,-0.8016,-0.802,-0.8011,-0.8004,-0.8011,-0.8011,-0.8011,-0.8011,-0.8011,-0.8011,-0.7676,-0.77,-0.7713,-0.7748,-0.7766,-0.7793,-0.7807,-0.7827,-0.7846,-0.788,-0.7903,-0.792,-0.7946,-0.7978,-0.8004,-0.8011,-0.8022,-0.802,-0.8029,-0.802,-0.802,-0.802,-0.8014,-0.8022,-0.8022,-0.8037,-0.8037,-0.8037]}]]